Tracking 18840 objects as of 19-November-2017
HD Live streaming from Space Station
objects crossing your sky now

FLOCK 2K 39

Track FLOCK 2K 39 now!
10-day predictions
FLOCK 2K 39 is classified as:


NORAD ID: 42866
Int'l Code: 2017-042AT
Perigee: 460.7 km
Apogee: 477.2 km
Inclination: 97.0 °
Period: 93.8 minutes
Semi major axis: 6839 km
RCS: Unknown
Launch date: July 14, 2017
Source: United States (US)
Launch site: TYURATAM MISSILE AND SPACE COMPLEX (TTMTR)
aabbcc
Your satellite tracking list
Your tracking list is empty




NASA's NSSDC Master Catalog

Two Line Element Set (TLE):
1 42866U 17042AT  17322.78012019 +.00009512 +00000-0 +28427-3 0  9996
2 42866 096.9949 225.0393 0012078 144.5726 215.6323 15.34706735019345
Source of the keplerian elements: AFSPC